Regional Weather Roundup
Issued by NWS Sterling, VA

Home | Current Version | Previous Version | Text Only | Print | Product List | Glossary Off
Versions: 1 2 3 4 5 6 7 8 9 10 11 12 13 14 15 16 17 18 19 20 21 22 23 24 25 26 27 28 29 30 31 32 33 34 35 36 37 38 39 40 41 42 43 44 45 46 47 48 49 50

192
ASUS41 KLWX 250710
RWRLWX

REGIONAL WEATHER ROUNDUP
NATIONAL WEATHER SERVICE BALTIMORE MD/WASHINGTON DC
300 AM EDT MON JUL 25 2016

Note: "FAIR" indicates few or no clouds below 12,000 feet
with no significant weather and/or obstructions to visibility.
 TC=TEMPERATURE CELSIUS

 * =Non NWS site. Station does not report precipitation (e.g. rain,
    snow, etc.), thunder, or fog.

DCZ001-MDZ009-015-VAZ040>042-051-053>054-250800-
WASHINGTON METRO

CITY           SKY/WX    TMP DP  RH WIND       PRES   REMARKS
WASHINGTON NAT MOCLDY    84  79  85 SE5       29.95F HX  96
DULLES         FAIR      80  71  74 NE6       29.97R
ANDREWS AFB    CLOUDY    77  73  88 E6        29.96S
QUANTICO       MOCLDY    82  77  84 NW5       29.95S HX  90
COLLEGE PARK*  FAIR      75  72  88 CALM      29.95S
LEESBURG*      FAIR      81  73  78 CALM      29.98S
MANASSAS*      FAIR      79  73  83 CALM      29.97R
GAITHERSBURG*  MOCLDY    75  70  83 CALM      30.01S

$$

MDZ006>007-011-014-250800-
BALTIMORE METRO

CITY           SKY/WX    TMP DP  RH WIND       PRES   REMARKS
BWI AIRPORT    MOCLDY    80  75  84 CALM      29.95S
MD SCIENCE CTR   N/A     84  74  71 MISG      29.95S HX  91
MARTIN STATE   CLOUDY    82  79  89 S5        29.96S HX  93
ANNAPOLIS      CLOUDY    81  73  76 S7        29.94F
FORT MEADE*    PTCLDY    73  72  94 CALM      29.98S

$$

MDZ012-015-019>023-250800-
MARYLAND EASTERN SHORE

CITY           SKY/WX    TMP DP  RH WIND       PRES   REMARKS
OCEAN CITY     CLOUDY   N/A N/A N/A VRB3      29.97S
SALISBURY      PTCLDY    79  78  97 S5        29.96S FOG
BAY BRIDGE AP* CLOUDY    81  72  74 S7        29.95F
CAMBRIDGE*     CLOUDY    73  70  88 NE13G20   29.96F
EASTON*        CLOUDY    77  74  90 S9        29.99F

$$

MDZ017>025-250800-
SOUTHERN MARYLAND

CITY           SKY/WX    TMP DP  RH WIND       PRES   REMARKS
PATUXENT RIVER CLOUDY    84  76  76 NE8       29.96S THUNDER HX  93
ST INIGOES     CLOUDY    85  77  77 S6        29.95S HX  95
LEONARDTOWN*   CLOUDY    81  75  83 CALM      29.99R

$$

MDZ003>005-250800-
NORTH CENTRAL MARYLAND

CITY           SKY/WX    TMP DP  RH WIND       PRES   REMARKS
FREDERICK*     MOCLDY    73  73 100 CALM      29.99S
HAGERSTOWN APT MOCLDY    77  71  82 CALM      29.98S

$$

MDZ501>502-250800-
WESTERN MARYLAND

CITY           SKY/WX    TMP DP  RH WIND       PRES   REMARKS
OAKLAND*       PTCLDY    70  68  94 SW5       30.13S
CUMBERLAND*    CLEAR     73  73 100 CALM      30.04S

$$

VAZ025>031-250800-
SHENANDOAH VALLEY

CITY           SKY/WX    TMP DP  RH WIND       PRES   REMARKS
WINCHESTER*    FAIR      73  72  94 CALM      29.99S FOG
FRONT ROYAL*   FAIR      73  72  94 CALM      30.00R
LURAY*         FAIR      73  73 100 CALM      30.01R
NEW MARKET*    FAIR     N/A N/A N/A CALM      30.01R
STAUNTON*      FAIR      71  70  98 CALM      30.05S
WAYNESBORO*    FAIR      73  69  89 W6        30.04S

$$

WVZ021-048>050-054>055-250800-
EASTERN WEST VIRGINIA PANHANDLE

CITY           SKY/WX    TMP DP  RH WIND       PRES   REMARKS
MARTINSBURG    FAIR      73  71  93 S3        29.98R
PETERSBURG*    FAIR      74  72  95 CALM      30.02R

$$

VAZ036>039-050-250800-
CENTRAL FOOTHILLS

CITY           SKY/WX    TMP DP  RH WIND       PRES   REMARKS
CHARLOTTESVILL FAIR      80  75  84 SW3       29.98F
CULPEPER*      FAIR      76  75  96 CALM      29.97S
ORANGE*          N/A     77  77 100 CALM      29.99S
GORDONSVILLE*  FAIR      76  75  98 SW3       29.97S
WARRENTON*     FAIR      76  71  82 CALM      29.97R

$$

VAZ055>057-250800-
NORTH AND CENTRAL PIEDMONT

CITY           SKY/WX    TMP DP  RH WIND       PRES   REMARKS
FREDERICKSBRG* MOCLDY    83  76  79 SW5       29.95R HX  92
STAFFORD*      CLOUDY    79  75  87 CALM      30.00R

$$

NCZ024-NYZ072-PAZ021-071-VAZ022-071-250800-
OTHER REGIONAL OBSERVATIONS

CITY           SKY/WX    TMP DP  RH WIND       PRES   REMARKS
NEW YORK CITY  CLOUDY    81  65  58 VRB3      29.97F
PHILADELPHIA   CLOUDY    81  69  67 S6        29.96S
PITTSBURGH     PTCLDY    72  69  90 CALM      30.00S
ROANOKE        FAIR      75  69  81 W3        30.06S
RICHMOND       FAIR      77  73  87 S6        29.98R
RALEIGH        PTCLDY    79  75  87 SW7       30.02F

$$

ANZ530>537-250800-
MARINE OBSERVATIONS

STATION/POSITION TIME  TEMP    WIND        PRES
                       AIR SEA DIR/SP/G
                 (UTC) (F)     (DEG/KT/KT) (MB)
THOMAS PT LIGHT  0700   81 83  150/ 13/ 14 1015.2F
BALT KEY BRIDGE  0648   82     200/  4/  4 1013.9F
COVE POINT       0648   80      80/ 13/ 17 1015.5R
LEWISETTA        0648   84 87  230/  7/  8 1014.2S
SOLOMONS ISLAND  0648          120/  3/  5   N/A
PINEY POINT      0648          240/  7/  9   N/A

$$





USA.gov is the U.S. government's official web portal to all federal, state and local government web resources and services.